Вернуться в каталог

CZ-6A DEB

АктивенSSO
NORAD 54612·DEBRIS·🇨🇳 China

Запущен Nov 11, 2022 с Taiyuan Satellite Launch Center

Loading…

Ближайшие Пролёты (ближайшие 24 часа)

TLE

СвежийSource: Space-Track

Эпоха: Sep 14, 2026, 10:10 UTC

1 54612U 22151NN  26257.42383527  .00000546  00000-0  31761-3 0  9991
2 54612  98.8405 256.0216 0050869  96.0812 264.6159 14.12041398196967

Отслеживайте CZ-6A DEB в реальном времени с AllMySat

Download on the App Store